Location: Camp at the Woods
(43.2055°N, 93.0905°W)
Time: 01:22:19
(UTC+00:00)

Cosmos 2227 Rocket - Pass Details

Date: 27 May 2025
Orbit: 837 x 844 km, 71.0° (Epoch: 12 June)

Event Time Altitude Azimuth Distance (km) Brightness Sun altitude
Exits shadow 09:16:22 - 269° (W) 2,817 4.5 -12.5°
Reaches altitude 10° 09:17:57 10° 282° (WNW) 2,456 4.3 -12.3°
Maximum altitude 09:21:05 15° 316° (NW) 2,125 4.3 -11.9°
Drops below altitude 10° 09:24:15 10° 350° (N) 2,465 5.1 -11.5°
Sets 09:27:53 0° 14° (NNE) 3,405 6.4 -11.0°
